This is the latest recevied weather packets stored in our database for station/object K7FLA. If no packets are shown the sender has not sent any weather packets the latest 10 day(s).
| Time | Temp. | Humidity | Pressure | Rain* | Wind** | Luminosity | Snow |
|---|---|---|---|---|---|---|---|
| 1777993144 | 10.56° C | 89% | 1093.5 hPa | 0 mm | - | 131 W/m² | - |
| 1777992843 | 10.56° C | 90% | 1093.4 hPa | 0 mm | - | 103 W/m² | - |
| 1777992540 | 10.56° C | 90% | 1093.3 hPa | 0 mm | - | 114 W/m² | - |
| 1777992238 | 10.56° C | 91% | 1093.2 hPa | 1.78 mm | - | 112 W/m² | - |
| 1777991935 | 10.56° C | 91% | 1093.6 hPa | 1.78 mm | - | 126 W/m² | - |
| 1777991633 | 10.56° C | 91% | 1093.2 hPa | 0 mm | - | 43 W/m² | - |
| 1777991330 | 10.56° C | 91% | 1093.3 hPa | 0 mm | - | 37 W/m² | - |
| 1777991027 | 10.56° C | 91% | 1093.1 hPa | 0 mm | - | 78 W/m² | - |
| 1777990724 | 10.56° C | 91% | 1093.1 hPa | 0 mm | - | 94 W/m² | - |
| 1777990422 | 10.56° C | 92% | 1093.1 hPa | 0 mm | - | 89 W/m² | - |
| 1777989814 | 10° C | 92% | 1093.2 hPa | 0 mm | - | 67 W/m² | - |
| 1777989512 | 10° C | 92% | 1093.2 hPa | 0 mm | - | 71 W/m² | - |
| 1777989207 | 10° C | 92% | 1093.1 hPa | 0 mm | - | 66 W/m² | - |
| 1777988904 | 10° C | 92% | 1093.1 hPa | 0 mm | - | 54 W/m² | - |
| 1777988601 | 10° C | 92% | 1093 hPa | 0 mm | - | 46 W/m² | - |
| 1777988297 | 10° C | 91% | 1092.8 hPa | 0 mm | - | 38 W/m² | - |
| 1777987994 | 10° C | 92% | 1092.7 hPa | 0 mm | - | 29 W/m² | - |
| 1777987690 | 10° C | 91% | 1092.8 hPa | 0 mm | - | 17 W/m² | - |
| 1777987387 | 9.44° C | 91% | 1092.6 hPa | 0 mm | - | 15 W/m² | - |
| 1777987084 | 9.44° C | 92% | 1092.7 hPa | 0 mm | - | 14 W/m² | - |
| 1777986781 | 9.44° C | 92% | 1092.8 hPa | 0 mm | - | 9 W/m² | - |
| 1777986479 | 9.44° C | 92% | 1092.7 hPa | 1.27 mm | - | 7 W/m² | - |
| 1777986177 | 9.44° C | 92% | 1092.7 hPa | 1.27 mm | - | 5 W/m² | - |
| 1777985874 | 10° C | 92% | 1092.7 hPa | 3.05 mm | - | 2 W/m² | - |
| 1777985572 | 9.44° C | 92% | 1092.7 hPa | 1.27 mm | - | 1 W/m² | - |
* Rain latest hour (hover to see other rain measurements)
** Current wind speed in m/s (hover to see current wind gust speed)